Hourly Weather Jalalabad

Today, 5 July, Sunday

Time Temperature Precipitation Wind Pressure Humidity
00:00 +34°C° 0 mm 1 mps 703 mmHg 28%
01:00 +33°C° 0 mm 1 mps 703 mmHg 27%
02:00 +34°C° 0 mm 2 mps 703 mmHg 26%
03:00 +32°C° 0.1 mm 1 mps 703 mmHg 27%
04:00 +32°C° 0.1 mm 1 mps 703 mmHg 27%
05:00 +31°C° 0 mm 1 mps 703 mmHg 28%
06:00 +32°C° 0 mm 1 mps 703 mmHg 25%
07:00 +33°C° 0 mm 1 mps 703 mmHg 22%
08:00 +34°C° 0 mm 1 mps 704 mmHg 19%
09:00 +35°C° 0 mm 1 mps 704 mmHg 20%
10:00 +36°C° 0 mm 1 mps 704 mmHg 21%
11:00 +38°C° 0 mm 2 mps 704 mmHg 22%
12:00 +38°C° 0 mm 2 mps 703 mmHg 21%
13:00 +39°C° 0 mm 3 mps 703 mmHg 20%
14:00 +41°C° 0 mm 4 mps 703 mmHg 18%
15:00 +41°C° 0 mm 4 mps 702 mmHg 19%
16:00 +41°C° 0 mm 4 mps 702 mmHg 19%
17:00 +41°C° 0 mm 5 mps 702 mmHg 19%
18:00 +38°C° 0 mm 4 mps 702 mmHg 24%
19:00 +36°C° 0 mm 4 mps 702 mmHg 30%
20:00 +34°C° 0 mm 3 mps 702 mmHg 35%
21:00 +34°C° 0 mm 2 mps 702 mmHg 36%
22:00 +34°C° 0 mm 2 mps 702 mmHg 36%
23:00 +33°C° 0 mm 1 mps 703 mmHg 37%

Tomorrow, 6 July, Monday

Time Temperature Precipitation Wind Pressure Humidity
00:00 +32°C° 0 mm 1 mps 703 mmHg 38%
01:00 +30°C° 0 mm 0 mps 703 mmHg 39%
02:00 +29°C° 0 mm 0 mps 703 mmHg 40%
03:00 +29°C° 0 mm 0 mps 702 mmHg 41%
04:00 +28°C° 0 mm 0 mps 702 mmHg 43%
05:00 +28°C° 0 mm 0 mps 702 mmHg 44%
06:00 +29°C° 0 mm 0 mps 703 mmHg 40%
07:00 +30°C° 0 mm 0 mps 703 mmHg 37%
08:00 +31°C° 0 mm 0 mps 703 mmHg 34%
09:00 +34°C° 0 mm 1 mps 703 mmHg 32%
10:00 +35°C° 0 mm 1 mps 703 mmHg 30%
11:00 +37°C° 0 mm 2 mps 703 mmHg 27%
12:00 +39°C° 0 mm 2 mps 703 mmHg 25%
13:00 +40°C° 0 mm 2 mps 703 mmHg 22%
14:00 +41°C° 0 mm 2 mps 702 mmHg 19%
15:00 +41°C° 0 mm 2 mps 702 mmHg 18%
16:00 +41°C° 0 mm 2 mps 702 mmHg 18%
17:00 +42°C° 0 mm 2 mps 702 mmHg 17%
18:00 +41°C° 0 mm 2 mps 702 mmHg 18%
19:00 +40°C° 0 mm 2 mps 703 mmHg 20%
20:00 +39°C° 0 mm 2 mps 703 mmHg 21%
21:00 +39°C° 0.1 mm 2 mps 703 mmHg 23%
22:00 +37°C° 0.1 mm 1 mps 704 mmHg 25%
23:00 +36°C° 0.1 mm 1 mps 704 mmHg 27%

Day after tomorrow, 7 July, Tuesday

Time Temperature Precipitation Wind Pressure Humidity
00:00 +36°C° 0 mm 1 mps 704 mmHg 28%
01:00 +35°C° 0 mm 1 mps 704 mmHg 30%
02:00 +32°C° 0 mm 0 mps 704 mmHg 31%
03:00 +32°C° 0.1 mm 0 mps 704 mmHg 32%
04:00 +31°C° 0.1 mm 0 mps 704 mmHg 33%
05:00 +31°C° 0.1 mm 0 mps 703 mmHg 34%
06:00 +32°C° 0 mm 0 mps 704 mmHg 31%
07:00 +33°C° 0 mm 0 mps 704 mmHg 28%
08:00 +35°C° 0 mm 0 mps 705 mmHg 25%
09:00 +39°C° 0 mm 1 mps 705 mmHg 23%
10:00 +40°C° 0 mm 2 mps 705 mmHg 21%
11:00 +41°C° 0 mm 2 mps 705 mmHg 19%
12:00 +43°C° 0 mm 3 mps 705 mmHg 18%
13:00 +44°C° 0 mm 3 mps 705 mmHg 16%
14:00 +45°C° 0 mm 3 mps 705 mmHg 15%
15:00 +44°C° 0 mm 4 mps 705 mmHg 15%
16:00 +44°C° 0 mm 4 mps 705 mmHg 16%
17:00 +44°C° 0 mm 4 mps 705 mmHg 17%
18:00 +43°C° 0 mm 3 mps 705 mmHg 19%
19:00 +40°C° 0 mm 3 mps 705 mmHg 22%
20:00 +39°C° 0 mm 2 mps 705 mmHg 24%
21:00 +38°C° 0 mm 2 mps 705 mmHg 26%
22:00 +37°C° 0 mm 1 mps 706 mmHg 27%
23:00 +36°C° 0 mm 1 mps 706 mmHg 28%

8 July, Wednesday

Time Temperature Precipitation Wind Pressure Humidity
00:00 +36°C° 0 mm 1 mps 706 mmHg 28%
01:00 +35°C° 0 mm 1 mps 705 mmHg 28%
02:00 +35°C° 0 mm 1 mps 705 mmHg 29%
03:00 +34°C° 0 mm 1 mps 705 mmHg 29%
04:00 +34°C° 0 mm 1 mps 705 mmHg 30%
05:00 +34°C° 0 mm 1 mps 705 mmHg 30%
06:00 +35°C° 0 mm 1 mps 705 mmHg 27%
07:00 +36°C° 0 mm 1 mps 705 mmHg 25%
08:00 +39°C° 0 mm 1 mps 705 mmHg 22%
09:00 +40°C° 0 mm 1 mps 705 mmHg 21%
10:00 +41°C° 0 mm 1 mps 705 mmHg 19%
11:00 +42°C° 0 mm 1 mps 705 mmHg 18%
12:00 +43°C° 0 mm 1 mps 705 mmHg 17%
13:00 +45°C° 0 mm 2 mps 704 mmHg 16%
14:00 +46°C° 0 mm 2 mps 703 mmHg 15%
15:00 +46°C° 0 mm 2 mps 703 mmHg 15%
16:00 +46°C° 0 mm 2 mps 703 mmHg 15%
17:00 +46°C° 0 mm 2 mps 703 mmHg 15%
18:00 +45°C° 0 mm 2 mps 703 mmHg 16%
19:00 +43°C° 0 mm 1 mps 703 mmHg 18%
20:00 +42°C° 0 mm 1 mps 704 mmHg 20%
21:00 +41°C° 0.1 mm 1 mps 704 mmHg 21%
22:00 +41°C° 0.1 mm 1 mps 704 mmHg 22%
23:00 +40°C° 0.1 mm 2 mps 704 mmHg 23%

9 July, Thursday

Time Temperature Precipitation Wind Pressure Humidity
00:00 +39°C° 0 mm 2 mps 703 mmHg 24%
01:00 +37°C° 0 mm 1 mps 703 mmHg 26%
02:00 +36°C° 0 mm 1 mps 703 mmHg 28%
03:00 +36°C° 0.1 mm 1 mps 702 mmHg 30%
04:00 +35°C° 0.1 mm 1 mps 702 mmHg 32%
05:00 +34°C° 0.1 mm 1 mps 702 mmHg 33%
06:00 +35°C° 0 mm 1 mps 702 mmHg 31%
07:00 +36°C° 0 mm 1 mps 702 mmHg 29%
08:00 +37°C° 0 mm 1 mps 702 mmHg 26%
09:00 +39°C° 0 mm 1 mps 702 mmHg 25%
10:00 +40°C° 0 mm 2 mps 702 mmHg 24%
11:00 +42°C° 0 mm 3 mps 702 mmHg 22%
12:00 +43°C° 0 mm 3 mps 702 mmHg 21%
13:00 +44°C° 0 mm 3 mps 701 mmHg 20%
14:00 +45°C° 0 mm 3 mps 701 mmHg 20%
15:00 +44°C° 0.1 mm 3 mps 701 mmHg 22%
16:00 +42°C° 0.1 mm 3 mps 700 mmHg 25%
17:00 +40°C° 0.1 mm 3 mps 700 mmHg 28%
18:00 +40°C° 0 mm 3 mps 700 mmHg 28%
19:00 +39°C° 0 mm 3 mps 700 mmHg 27%
20:00 +39°C° 0 mm 2 mps 701 mmHg 27%
21:00 +39°C° 0 mm 2 mps 701 mmHg 28%
22:00 +38°C° 0 mm 2 mps 701 mmHg 29%
23:00 +36°C° 0 mm 1 mps 701 mmHg 30%

10 July, Friday

Time Temperature Precipitation Wind Pressure Humidity
00:00 +35°C° 0 mm 1 mps 701 mmHg 32%
01:00 +36°C° 0 mm 2 mps 701 mmHg 34%
02:00 +35°C° 0 mm 2 mps 701 mmHg 36%
03:00 +33°C° 0 mm 1 mps 700 mmHg 39%
04:00 +33°C° 0 mm 1 mps 700 mmHg 43%
05:00 +32°C° 0 mm 1 mps 700 mmHg 46%
06:00 +32°C° 0 mm 1 mps 701 mmHg 44%
07:00 +33°C° 0 mm 1 mps 701 mmHg 42%
08:00 +34°C° 0 mm 1 mps 701 mmHg 40%
09:00 +36°C° 0 mm 2 mps 701 mmHg 37%
10:00 +37°C° 0 mm 2 mps 701 mmHg 33%
11:00 +38°C° 0 mm 2 mps 701 mmHg 30%
12:00 +39°C° 0 mm 2 mps 700 mmHg 27%
13:00 +41°C° 0 mm 2 mps 700 mmHg 24%
14:00 +42°C° 0 mm 2 mps 699 mmHg 20%
15:00 +42°C° 0 mm 2 mps 699 mmHg 19%
16:00 +43°C° 0 mm 2 mps 699 mmHg 17%
17:00 +44°C° 0 mm 3 mps 699 mmHg 16%
18:00 +43°C° 0 mm 3 mps 699 mmHg 19%
19:00 +42°C° 0 mm 3 mps 699 mmHg 22%
20:00 +41°C° 0 mm 4 mps 699 mmHg 24%
21:00 +40°C° 0 mm 3 mps 699 mmHg 28%
22:00 +39°C° 0 mm 2 mps 700 mmHg 31%
23:00 +37°C° 0 mm 1 mps 700 mmHg 34%
Show more